GFSMW_con_3kmhel_000.txt.gz
Helicity
67 56 162 323 294 227 207 152 148 166 226 199 254 220 244 187 207 163 257 258 195 155 139 148 190 136 123 136 74 83 92 99 129 129 61 43 125 122 117 135 100 81 95
95 141 168 185 196 160 120 135 102 128 218 185 197 160 172 170 206 210 273 309 181 189 179 132 139 128 153 110 79 60 81 82 96 126 104 9 9 143 180 183 186 85 56
74 115 129 129 180 166 146 82 87 94 182 220 128 198 236 197 255 288 310 279 162 165 144 152 161 147 134 103 96 75 57 67 90 102 100 76 30 -12 86 99 134 137 145
93 91 96 91 104 134 174 132 50 93 113 235 263 142 262 305 204 162 173 173 212 139 137 165 164 195 218 178 124 96 98 93 83 99 94 104 103 38 -51 26 80 99 96
142 128 116 120 131 126 162 190 143 108 113 144 275 351 279 281 248 226 232 232 255 302 357 323 315 209 232 245 178 156 114 101 100 93 89 88 77 85 59 -44 -40 9 61
189 147 111 125 175 139 162 176 209 184 179 192 195 344 409 326 328 292 363 425 409 411 442 424 383 324 277 242 219 173 150 140 132 127 109 92 87 79 77 56 18 -5 -1
108 208 194 155 164 185 130 154 246 288 272 251 239 294 402 430 335 305 387 440 545 461 420 359 405 250 223 174 143 139 153 159 151 125 109 97 88 79 75 58 40 23 16
109 163 118 92 128 220 202 142 151 161 211 253 300 373 417 497 471 453 495 578 439 354 310 209 238 182 182 145 119 129 141 138 135 109 101 98 97 95 91 85 67 50 38
105 124 90 81 114 163 186 176 204 108 134 170 190 334 424 546 670 735 694 456 336 257 349 380 253 150 119 122 128 157 161 153 135 122 112 98 95 97 97 90 94 80 39
99 108 114 183 147 224 169 216 167 204 166 160 267 446 576 682 754 838 655 402 373 383 254 286 161 136 126 117 130 165 168 169 165 145 130 124 119 105 105 106 104 117 123
87 122 140 144 243 212 255 162 158 209 254 269 320 474 517 541 555 499 478 497 416 299 207 135 135 100 101 114 134 153 156 154 144 134 122 112 105 115 109 105 102 109 117
156 214 188 125 170 311 232 76 173 237 340 359 489 495 462 432 410 430 437 396 223 128 141 99 84 93 109 123 137 145 139 137 132 122 118 110 110 105 101 105 95 81 51
236 230 210 155 313 222 67 116 159 237 368 519 496 443 347 321 344 374 337 181 131 136 99 102 111 117 128 131 131 123 121 122 123 126 123 124 125 119 114 101 98 93 89
244 137 152 268 228 128 127 127 177 234 412 461 427 365 285 280 279 256 267 154 93 96 117 124 127 131 127 117 113 116 127 136 148 164 169 178 188 197 187 147 121 106 104
257 213 215 167 153 146 122 218 166 229 372 402 382 365 410 311 186 286 136 111 121 132 127 135 132 137 134 131 131 173 196 192 181 185 197 181 155 120 112 107 46 29 7
134 139 120 103 108 136 159 258 177 260 340 467 477 322 235 240 255 135 113 129 122 148 150 152 143 131 133 154 157 147 145 149 155 140 114 130 -67 -62 -50 -46 -47 9 -35
103 113 142 110 88 190 320 275 259 360 401 407 311 240 129 108 158 143 130 128 152 158 164 148 132 140 154 151 157 153 137 106 -39 -92 -70 -33 126 72 82 59 20 30 26
118 89 112 104 158 235 243 213 199 242 256 249 127 58 119 169 179 146 146 152 168 166 145 137 144 163 164 131 93 47 -67 -102 2 80 84 95 117 123 106 90 88 96 98
106 119 100 205 257 221 216 184 173 164 93 88 182 200 216 174 151 141 158 161 154 131 130 165 167 130 113 79 -71 -51 -44 53 125 157 163 157 148 124 71 88 117 142 141
87 124 216 211 179 179 135 110 84 81 139 206 209 208 167 143 136 171 151 135 120 134 172 120 131 105 56 -89 -32 13 107 97 147 86 119 81 101 95 97 103 109 108 110
168 201 222 165 141 142 139 123 99 120 263 211 185 144 125 134 149 140 118 120 125 142 134 148 117 63 -104 -65 -6 1 27 65 74 103 103 106 59 37 19 18 109 116 101
226 238 153 140 189 165 170 140 239 227 172 145 133 118 127 139 122 108 110 104 109 121 140 93 56 -27 4 60 41 18 16 55 70 73 68 74 54 50 17 -4 9 42 55
218 153 148 204 160 160 220 194 176 151 132 109 113 126 120 105 106 96 93 95 106 119 89 74 -75 -52 77 82 41 23 53 54 73 55 46 39 36 40 45 72 74 52 65
180 165 204 176 166 171 185 165 137 118 98 101 114 106 96 92 91 89 85 102 102 98 60 -63 -87 -15 59 65 78 132 116 122 81 58 71 81 95 99 78 75 76 70 129
169 168 149 143 148 193 168 161 124 101 97 99 96 87 108 96 83 73 92 95 106 71 -29 -83 -54 6 27 49 87 29 18 22 59 65 40 37 37 26 29 77 16 29 51
103 105 133 130 158 143 131 112 117 121 106 92 95 93 85 78 77 80 81 92 63 12 -51 -47 -23 1 -1 39 26 28 50 33 39 55 48 17 13 49 56 105 44 8 11

GFSMW_con_3kmhel_003.txt.gz
Helicity
145 126 227 274 309 281 237 200 190 141 166 182 195 190 209 179 173 189 223 276 243 163 139 178 194 178 189 134 88 71 42 50 61 82 87 29 31 35 98 86 101 95 87
85 86 118 156 160 151 144 135 117 116 138 185 184 203 183 160 187 172 230 276 300 232 218 189 209 241 229 206 163 123 87 79 67 46 30 13 16 -7 50 79 134 128 91
104 112 125 133 119 110 132 133 92 104 159 210 247 242 230 227 249 240 256 305 323 255 242 209 197 219 255 267 211 155 112 89 92 61 44 35 11 -10 -27 12 47 69 80
167 145 115 118 110 83 143 106 111 102 100 176 300 305 305 302 307 281 241 258 259 274 242 195 214 268 319 417 358 301 197 128 106 78 82 79 52 -9 -35 -47 -29 11 20
161 197 130 138 146 200 151 112 125 132 121 170 236 297 320 327 313 288 274 260 266 260 255 347 442 458 372 354 307 264 254 157 109 94 78 69 59 33 12 -45 -59 -38 3
169 195 184 184 177 168 131 108 148 177 190 236 256 328 346 349 416 431 461 420 458 521 566 550 461 378 309 353 390 334 294 210 105 83 98 97 87 69 36 15 -6 -40 -57
113 81 114 151 208 271 237 191 182 202 184 239 253 290 349 370 425 506 579 592 598 581 542 449 448 366 298 376 310 302 248 89 108 113 113 124 119 116 84 56 19 6 -21
106 119 121 165 289 311 263 239 192 173 131 138 145 166 216 334 405 550 631 740 768 666 551 595 408 314 345 425 294 182 124 115 126 120 127 121 110 100 86 70 39 3 -3
130 104 148 208 215 210 208 175 128 155 145 180 227 195 194 279 449 665 759 764 677 643 611 728 524 535 451 163 123 133 137 124 123 133 139 137 116 116 82 76 69 41 -14
146 163 137 157 244 299 225 136 168 125 123 306 316 315 324 385 447 521 618 633 567 620 727 500 321 138 112 114 113 123 111 122 144 138 138 131 113 100 103 93 86 89 70
291 283 270 210 242 152 97 105 96 75 134 306 373 390 351 334 344 397 391 414 350 286 162 95 56 99 111 98 106 116 118 127 126 135 126 125 118 122 111 111 113 103 90
238 299 288 248 176 146 63 107 69 135 144 307 411 439 396 368 345 356 352 338 256 179 109 93 107 101 96 108 115 110 112 108 105 106 113 106 88 89 85 86 76 71 67
232 202 131 77 107 106 109 96 115 165 131 308 407 385 365 328 332 293 224 180 147 104 81 55 75 92 106 111 117 113 114 113 117 116 121 111 109 94 69 52 57 74 75
173 163 49 44 111 94 92 117 151 131 154 261 335 306 291 314 323 293 234 141 100 106 89 89 105 118 120 116 114 110 124 136 141 152 164 150 134 115 92 70 48 36 56
130 55 30 49 113 92 111 180 153 150 163 259 365 496 486 379 338 276 216 113 87 103 110 113 122 132 124 117 112 146 157 156 136 118 113 108 89 60 58 66 43 33 23
131 99 98 113 103 96 182 203 192 183 215 305 398 399 394 380 348 213 79 77 104 115 127 128 140 127 120 130 237 197 140 122 129 121 101 85 50 66 60 -85 -83 83 77
140 91 100 125 104 210 219 203 169 176 243 213 219 187 160 164 14 -119 63 129 133 146 146 132 118 121 152 181 132 97 81 104 124 112 -60 1 111 67 90 51 -36 -44 -51
83 99 112 124 200 197 168 144 165 209 221 117 104 129 106 -2 74 165 157 161 168 148 122 123 124 147 117 84 67 68 130 -6 -82 98 98 101 97 94 95 107 98 75 77
112 112 154 196 175 186 147 155 154 93 104 96 75 129 159 182 165 167 174 149 130 118 124 117 114 103 94 62 55 -38 -85 -34 95 106 91 114 136 48 28 79 113 130 143
126 189 200 232 240 171 167 153 174 172 219 187 200 147 165 144 158 150 135 120 124 113 113 117 131 93 87 53 -60 -28 59 62 89 81 88 72 68 55 70 91 97 96 95
248 215 195 213 193 265 278 268 263 269 206 159 122 96 102 126 133 126 115 106 100 108 125 112 77 79 98 -83 -47 -7 36 93 100 118 123 107 46 44 50 42 68 65 40
203 186 182 214 296 245 218 328 256 158 114 93 94 108 108 103 110 111 88 91 96 100 76 48 55 93 75 -70 -3 1 18 41 57 84 105 106 89 30 16 5 20 43 -3
176 182 230 267 211 233 209 206 130 117 105 96 99 91 91 92 93 86 77 84 84 74 44 41 66 74 -60 24 22 45 75 56 68 66 80 53 38 37 26 29 42 38 22
175 201 216 208 150 173 164 175 142 106 96 89 81 82 97 85 76 82 83 83 59 36 34 56 65 -21 -23 21 21 62 34 68 60 34 56 32 16 20 -30 -26 -8 7 53
133 122 118 122 179 182 175 134 118 105 90 78 79 93 80 78 77 74 76 60 48 72 66 43 9 -79 1 14 55 6 -3 -29 -37 50 47 56 52 8 50 58 67 14 32
100 117 170 249 175 168 137 127 115 102 86 71 83 75 69 70 75 73 63 58 48 55 52 17 -25 -44 1 49 15 21 20 39 -25 41 14 38 28 31 52 68 84 67 11

GFSMW_con_3kmhel_006.txt.gz
Helicity
66 85 183 272 291 240 182 153 126 91 134 119 123 135 155 168 186 199 218 215 203 183 188 179 165 185 197 166 153 149 110 92 61 67 47 65 73 56 54 18 48 67 107
76 70 87 97 125 133 116 91 89 68 89 137 142 175 208 200 211 194 221 239 254 263 258 243 224 232 256 258 248 228 214 170 127 83 47 35 29 55 42 62 53 44 49
124 105 93 102 122 133 129 95 107 87 95 103 133 172 245 264 262 245 264 283 311 329 326 304 306 275 286 316 325 372 349 282 236 199 113 30 24 -8 -11 7 25 19 33
125 106 80 111 109 100 103 90 126 117 89 131 185 250 287 309 312 330 358 312 337 340 364 338 332 324 356 445 539 543 478 370 304 282 197 159 88 29 -21 -12 6 -4 -8
101 89 93 129 94 82 96 116 152 134 114 150 194 269 289 351 332 349 345 343 382 420 418 430 491 555 589 589 505 390 452 355 305 344 178 139 92 52 64 16 -7 -3 -19
69 90 149 147 206 219 187 177 189 185 164 136 122 251 254 286 327 290 348 421 508 516 431 571 668 673 658 694 645 545 383 264 336 381 161 113 93 70 75 71 32 -7 -15
73 62 100 216 254 294 283 233 185 128 92 86 150 149 199 207 218 228 297 479 661 719 597 641 702 712 745 622 613 494 615 299 298 212 182 138 118 114 102 91 59 30 12
9 77 178 270 279 280 281 239 260 167 144 116 161 141 156 167 155 166 253 450 583 686 782 783 824 726 450 522 469 485 208 140 141 176 166 144 133 114 123 128 104 40 18
97 123 179 299 334 294 209 134 124 108 149 160 175 195 204 179 198 262 326 470 682 802 924 811 475 474 341 156 22 95 127 148 167 145 148 148 134 145 140 138 130 99 14
274 270 267 275 242 199 114 96 101 122 152 136 173 240 253 282 308 355 421 498 541 521 416 472 292 76 -95 -64 17 91 128 134 144 138 134 134 133 143 145 121 109 108 79
221 208 222 206 182 138 109 115 112 97 117 97 143 225 285 327 382 408 377 361 323 272 106 -18 -13 -23 7 55 93 95 102 109 115 122 111 107 103 111 123 121 109 87 78
150 191 166 131 89 69 94 93 86 103 121 75 148 235 298 373 418 391 320 302 250 170 67 18 37 77 63 65 82 96 106 114 117 113 120 106 97 94 91 96 94 82 65
120 107 63 74 57 111 96 102 123 122 110 104 162 256 290 310 341 311 245 197 129 86 68 88 90 92 90 98 102 112 118 121 111 106 96 88 90 91 94 89 79 63 59
161 113 31 118 84 89 120 125 130 133 107 96 135 241 324 323 317 267 198 162 157 122 98 84 92 94 96 100 97 104 115 119 115 113 110 110 113 109 97 82 65 36 15
47 50 -5 115 88 118 118 123 142 140 143 181 234 334 376 384 320 308 341 241 125 80 73 100 105 117 116 104 142 152 148 138 119 104 91 85 81 59 70 76 38 19 20
19 53 98 97 143 117 135 149 163 173 144 229 258 298 353 336 353 247 135 -44 -39 49 124 136 120 114 113 130 159 157 135 113 100 92 86 89 58 73 54 44 56 79 78
139 130 97 122 128 128 147 169 193 143 227 205 155 112 93 44 -65 -70 -66 -7 95 129 125 121 115 107 113 112 117 106 102 107 126 131 127 12 99 67 90 75 37 -21 -49
184 130 116 125 132 163 184 171 157 221 157 129 73 84 110 125 130 84 108 125 142 139 124 109 104 117 106 97 84 75 96 141 36 -86 84 100 90 83 70 75 83 75 85
161 106 130 134 153 160 171 221 229 197 283 248 226 217 212 173 118 96 103 108 124 116 112 109 105 100 92 64 62 77 118 -56 -50 74 74 89 84 51 23 71 107 61 85
121 172 135 157 189 231 304 351 309 308 322 239 185 135 105 96 87 93 104 108 110 108 111 116 99 73 70 56 59 96 -28 -27 38 74 91 66 92 71 57 56 69 70 67
149 130 134 152 186 228 278 245 241 247 161 103 111 88 81 93 107 107 102 98 107 114 112 87 65 59 81 83 70 -14 -21 9 69 117 100 104 64 38 46 35 43 58 41
114 97 139 181 200 226 217 173 141 139 116 100 104 92 93 96 108 106 92 108 116 104 76 53 52 80 101 73 25 -0 -8 -17 -17 21 86 61 21 -6 16 31 68 31 15
72 113 143 166 154 133 125 148 163 149 120 97 83 82 93 101 96 100 102 98 84 70 64 50 52 55 71 107 1 19 18 25 -24 2 9 16 12 3 -21 11 10 -16 8
128 164 165 148 153 192 218 178 156 121 101 80 76 77 89 94 99 97 100 93 79 78 68 40 42 38 49 2 16 46 13 17 14 -31 20 76 70 46 -8 6 22 -1 23
130 142 152 119 146 183 152 143 118 92 84 70 61 71 86 96 95 86 87 90 84 76 61 46 45 18 8 5 38 15 6 -12 -14 -32 -75 -45 5 44 44 56 54 56 21
145 124 140 119 130 147 134 100 84 87 80 63 65 77 82 98 102 83 84 80 79 59 59 63 34 -29 -29 24 30 31 21 38 20 -20 -67 -53 30 48 41 39 58 46 50

GFSMW_con_3kmhel_009.txt.gz
Helicity
77 53 65 110 192 178 145 84 80 71 139 115 94 83 104 134 179 188 163 175 202 220 243 233 211 228 218 196 191 186 164 151 138 133 105 62 44 38 45 30 37 74 111
102 60 34 37 83 107 84 56 67 90 86 113 104 113 143 120 172 236 247 248 259 254 294 307 296 306 300 269 278 298 285 227 221 192 166 129 106 89 45 18 13 36 62
61 40 24 49 66 81 79 92 102 102 114 130 156 171 206 174 205 215 293 315 363 332 349 373 383 375 414 387 391 412 406 356 354 299 266 228 159 75 21 37 -20 8 22
58 54 41 29 30 30 65 67 92 111 130 160 207 205 221 203 235 253 260 271 329 334 359 381 435 435 474 417 422 434 489 553 550 482 446 390 308 143 51 -0 17 -20 24
57 19 14 -1 39 80 113 129 136 151 189 192 174 175 190 229 247 247 222 231 268 313 318 357 465 476 434 470 511 557 631 618 655 588 543 432 348 280 113 64 44 -2 -24
-14 49 136 145 199 269 299 333 340 323 288 215 147 107 157 184 208 177 178 206 226 228 282 441 555 625 701 830 628 641 776 731 528 644 572 480 479 365 181 127 111 87 -41
94 98 140 227 309 338 324 286 251 220 180 166 138 118 139 150 153 165 178 172 217 262 344 509 788 819 821 790 791 807 757 705 644 490 406 285 171 176 214 237 169 87 25
140 207 240 287 264 251 252 252 194 124 92 103 176 181 153 173 174 167 165 187 266 390 557 713 713 751 902 773 769 875 503 163 81 41 13 82 142 224 247 223 182 112 88
244 253 219 219 224 216 185 158 134 125 141 173 144 144 146 136 158 191 224 245 348 438 522 561 613 617 601 567 272 68 -116 -136 -51 -4 73 148 190 185 202 209 194 186 103
215 175 163 167 176 148 107 100 146 146 143 138 125 109 120 142 197 258 277 330 375 367 326 317 258 259 111 -71 -46 -53 34 54 78 100 114 130 141 144 155 167 170 183 180
106 117 118 149 113 102 90 88 135 102 120 118 107 90 125 178 277 336 348 322 283 238 175 182 81 -32 14 21 47 58 75 91 93 94 107 114 118 133 138 147 156 151 145
152 140 115 94 120 52 48 66 90 89 92 77 61 75 133 204 307 341 303 264 216 154 103 107 99 78 74 85 93 86 107 119 101 98 112 116 113 124 129 143 138 143 131
142 117 107 133 106 107 119 118 94 68 63 68 74 97 142 212 269 319 309 234 216 158 136 123 114 113 111 109 110 115 108 105 112 117 122 109 106 99 99 97 102 113 107
103 66 87 150 125 142 100 76 68 78 79 93 102 124 169 215 259 277 342 340 288 191 152 115 119 97 90 96 100 106 117 129 129 117 106 105 103 96 94 91 99 101 108
81 71 121 199 222 177 84 84 82 93 109 129 141 182 197 273 339 406 354 300 191 84 -28 -0 101 138 121 106 122 136 133 129 118 106 95 80 69 47 77 112 101 102 104
106 136 135 216 207 152 96 108 114 146 154 165 161 178 229 215 166 127 87 58 11 12 77 119 126 121 113 96 78 107 111 105 94 84 74 88 61 69 52 65 84 110 117
89 121 224 223 196 110 123 123 132 153 218 183 154 134 101 107 99 104 92 85 107 131 142 144 132 117 114 110 116 110 114 111 99 97 100 88 84 43 89 58 30 46 32
173 274 295 265 90 122 139 162 195 222 255 297 286 233 200 177 151 132 145 142 100 84 126 122 123 121 106 99 85 73 105 109 110 110 96 -13 25 60 54 60 73 79 89
227 240 75 73 89 117 198 275 311 310 329 307 312 234 163 149 145 121 80 78 104 97 105 91 98 94 80 63 60 72 100 101 101 65 24 46 61 48 15 57 80 81 89
115 165 92 106 134 181 224 259 207 186 160 109 77 109 97 103 109 98 84 95 98 91 103 96 89 71 72 54 54 71 91 89 41 -0 22 46 70 39 37 69 97 77 90
16 70 105 116 100 132 198 165 96 113 116 127 120 116 110 94 104 100 108 104 99 99 89 74 59 61 60 61 48 47 83 76 -18 -8 50 91 43 30 21 23 34 -0 57
75 96 95 118 122 127 168 136 135 170 152 149 117 96 92 94 98 109 108 106 96 77 66 56 56 64 65 41 43 38 52 -4 -25 1 49 33 -8 2 -31 -29 -9 4 -4
80 87 141 136 140 155 161 180 160 176 175 126 90 75 79 80 102 115 101 98 90 75 68 58 52 41 36 63 24 43 23 11 3 -0 -12 -28 55 15 1 -3 12 -16 -31
92 131 136 132 145 165 125 94 119 133 128 99 75 67 68 87 118 119 106 99 83 81 75 67 53 34 13 12 24 -1 -11 25 -5 -18 -32 -50 -9 37 45 41 27 18 37
121 120 118 119 100 79 88 104 104 101 103 90 72 58 73 103 114 115 101 98 95 103 97 90 72 14 -18 -12 7 14 10 -1 -8 -16 -30 -49 -28 11 27 45 41 20 22
132 119 125 100 103 123 125 115 113 112 101 86 74 72 97 113 116 111 97 76 82 89 84 71 82 -20 -37 2 20 30 33 27 27 -17 -36 -40 -6 14 25 27 50 41 33

GFSMW_con_3kmhel_015.txt.gz
Helicity
44 34 41 40 39 59 82 82 81 90 85 108 124 124 111 88 78 84 86 82 95 126 154 164 148 157 194 205 228 224 208 213 204 206 154 139 125 133 139 156 153 145 117
65 56 58 14 -8 15 33 63 96 94 100 111 138 152 136 127 123 117 98 114 114 127 142 144 136 135 162 171 228 271 285 265 277 268 209 194 133 135 147 163 187 162 132
59 35 51 58 82 101 76 86 88 110 137 161 164 164 158 165 158 133 105 117 113 125 121 112 114 116 145 172 191 223 268 305 280 290 303 266 211 179 138 129 177 172 154
79 105 98 105 99 99 126 134 166 193 208 210 200 188 138 118 123 110 121 110 85 101 109 105 99 96 125 144 162 197 225 253 312 355 372 468 393 280 221 227 240 208 203
103 110 121 118 161 202 222 209 202 206 198 173 152 130 112 71 46 66 63 50 73 92 92 99 105 125 141 160 196 232 289 322 297 373 447 488 536 491 366 275 306 295 285
90 123 135 176 221 225 230 214 207 187 158 130 101 63 55 75 75 62 30 61 50 66 85 129 187 213 235 296 343 381 454 460 516 529 623 648 523 593 631 515 466 249 234
100 145 220 230 199 195 186 152 141 146 128 77 49 27 112 155 152 98 43 48 67 97 150 191 237 285 336 366 349 363 341 361 363 396 418 489 501 352 448 400 332 205 147
50 108 108 94 110 106 86 101 83 43 34 52 154 156 129 112 84 59 62 77 100 144 168 187 219 198 234 248 234 179 215 226 186 203 185 106 116 89 56 100 134 162 146
101 96 98 69 65 84 75 63 72 92 130 168 163 135 126 87 56 46 76 102 112 168 208 233 212 183 159 144 139 97 -6 -138 -219 -449 -372 -237 -301 -226 -62 -23 -22 -15 53
92 115 85 61 61 75 63 80 119 137 143 133 110 101 69 35 26 39 59 85 159 219 239 242 214 157 117 70 68 55 27 -10 -13 -35 -66 -64 -60 -48 -38 -19 -30 -8 24
89 61 43 48 55 76 102 95 111 132 139 141 138 126 60 8 1 44 91 158 226 229 248 250 258 244 185 118 73 62 47 28 16 3 5 5 9 27 37 48 61 76 88
44 7 28 74 80 87 81 92 123 184 185 185 136 63 48 87 69 76 164 203 224 248 254 282 196 58 35 94 97 87 73 62 57 58 66 63 76 80 86 94 94 102 104
80 49 113 113 117 130 120 137 218 193 119 72 50 61 82 81 123 169 176 204 225 241 251 191 112 113 123 103 75 68 68 59 61 68 74 77 80 79 79 79 89 93 98
24 59 128 155 124 127 129 133 100 78 80 87 109 136 130 116 129 122 121 134 152 160 143 91 92 118 99 110 111 84 70 71 80 79 79 77 74 69 70 76 78 86 96
52 97 125 111 120 154 110 91 85 75 97 125 163 162 86 134 142 142 133 108 104 107 123 118 101 66 52 68 91 89 83 73 68 69 71 79 72 57 58 84 76 79 93
44 61 86 64 101 134 95 67 63 106 124 149 200 223 192 108 76 59 80 113 131 124 110 108 99 90 83 101 102 89 75 61 58 56 56 51 42 41 45 53 61 81 102
86 94 59 -2 95 112 88 55 99 108 121 131 116 109 94 80 81 97 108 113 105 92 85 86 88 95 96 89 75 63 55 57 53 47 37 41 48 41 52 59 59 52 50
68 -4 -19 67 64 65 87 103 110 105 98 103 123 128 120 114 111 114 101 88 77 75 69 76 97 87 76 65 55 52 50 55 47 29 27 27 31 47 56 49 45 43 55
8 35 66 64 83 94 98 75 78 119 119 149 147 125 116 117 118 95 82 70 63 54 68 88 80 71 67 59 50 51 50 41 28 19 21 28 39 27 22 37 -30 41 50
47 45 83 87 84 75 79 79 97 141 191 188 151 136 117 115 86 77 68 59 53 68 89 82 75 70 59 46 53 62 61 43 31 13 13 22 21 1 -4 -12 65 66 55
30 58 80 80 74 82 98 110 148 171 181 149 141 92 97 76 69 62 58 55 64 83 84 81 71 65 61 56 59 73 71 53 16 2 4 11 9 24 -16 -21 -41 -22 -7
38 50 83 89 106 101 113 124 123 112 116 130 118 89 79 77 66 55 51 68 82 79 73 62 62 68 48 40 50 54 57 32 -13 -17 -9 -7 19 -9 -28 -35 -19 9 18
60 85 106 121 128 124 147 147 108 135 143 153 122 104 97 82 72 66 63 79 86 84 80 78 71 60 51 44 38 43 34 19 -12 -16 -4 14 -5 -22 -26 3 10 2 -6
67 86 112 119 137 152 175 145 154 161 171 159 139 131 109 93 82 79 89 93 86 89 91 78 75 66 43 41 23 2 -8 8 -13 -2 -11 -16 -22 -38 -12 -1 -1 -1 -2
80 98 104 119 145 161 149 159 145 149 157 143 150 145 131 109 96 99 87 87 98 101 103 100 94 65 54 20 -30 -21 -12 -8 -1 -3 -11 -14 -18 -15 14 17 8 7 6
88 86 99 145 156 160 151 155 132 130 116 119 142 154 128 114 108 93 76 86 97 106 117 99 97 76 59 -32 -8 6 10 12 13 -17 -6 -1 -5 1 32 30 20 2 11

GFSMW_con_3kmhel_021.txt.gz
Helicity
147 226 168 103 98 83 110 112 124 176 98 142 149 128 118 144 113 142 234 162 181 150 114 107 102 101 127 136 119 92 78 86 86 101 110 131 120 149 173 168 167 157 162
208 179 173 182 184 151 115 119 137 129 157 154 151 120 131 129 150 97 223 190 265 148 148 168 127 121 162 141 116 90 94 105 103 108 114 138 156 181 197 250 214 173 163
143 174 183 161 137 142 152 171 167 183 185 153 153 158 112 105 130 199 163 144 103 124 143 134 159 145 137 123 108 114 117 119 106 122 151 169 194 165 130 142 235 198 221
150 150 129 115 110 128 140 159 180 183 167 148 149 101 94 91 149 115 166 195 107 103 144 143 144 138 95 91 83 88 176 194 131 137 168 242 261 292 206 145 114 174 220
159 132 105 99 120 125 147 162 142 137 122 97 80 87 104 148 133 121 134 236 142 179 145 148 139 116 66 84 93 179 183 205 252 318 350 341 310 340 321 272 268 166 175
117 86 72 50 66 126 158 110 94 87 84 95 126 151 123 82 85 111 138 168 183 138 135 144 143 76 36 101 232 233 199 171 208 242 254 216 207 267 294 305 332 446 341
100 69 61 86 135 143 114 84 86 84 92 92 75 70 72 92 105 147 174 173 146 131 105 120 65 46 229 231 213 195 174 118 128 157 177 175 170 164 189 203 245 262 219
76 35 47 67 107 130 102 75 44 50 104 140 161 159 161 159 152 171 159 124 112 100 61 56 138 216 227 197 160 166 70 56 85 98 70 95 88 71 96 141 162 214 205
49 65 105 105 129 131 108 97 84 108 134 155 193 173 138 130 144 138 76 58 43 56 80 181 202 204 299 283 205 144 89 83 50 44 22 19 40 34 30 -19 -4 64 98
72 94 95 106 117 135 123 113 94 115 157 148 133 142 154 144 139 85 103 111 105 151 179 152 118 237 203 175 116 88 47 103 117 107 92 63 37 46 42 36 9 -2 -21
86 86 98 128 135 140 152 172 164 165 122 142 158 159 144 158 130 128 118 108 118 155 125 121 184 166 157 140 87 69 69 100 118 121 93 75 70 82 91 95 79 83 83
68 68 90 150 167 195 188 175 143 145 146 152 152 114 111 125 127 141 202 168 170 93 84 144 148 157 153 122 79 64 86 122 166 159 138 126 105 101 100 93 87 88 87
86 132 140 132 173 199 190 181 162 154 139 114 103 102 135 204 159 154 146 146 99 83 77 82 84 67 36 65 85 59 61 46 37 45 44 53 83 88 96 102 103 97 97
105 150 197 156 188 130 181 151 126 109 111 109 86 97 185 114 96 78 92 119 105 92 105 134 121 123 103 89 70 107 84 70 66 72 74 72 74 81 84 87 92 94 97
133 196 176 159 140 137 145 117 127 118 114 91 91 105 172 117 145 137 136 134 121 104 92 87 81 83 77 105 159 135 95 84 70 67 65 65 82 114 81 81 72 81 92
193 207 137 134 117 122 102 147 104 108 108 107 115 136 181 165 142 148 132 133 118 96 86 77 78 82 81 190 177 129 97 75 72 70 64 63 69 56 54 31 24 54 73
192 129 90 100 120 121 152 102 114 104 136 151 121 199 168 161 142 129 135 115 96 83 69 69 76 92 94 201 147 123 85 74 63 69 77 73 69 76 56 79 98 58 47
99 31 122 165 138 108 91 106 118 114 111 73 175 167 194 152 114 122 109 106 90 85 76 77 99 101 96 170 143 113 71 85 77 73 80 78 59 65 87 72 51 39 38
87 159 125 86 77 76 82 103 114 86 77 94 108 149 175 116 123 104 118 92 88 78 85 98 119 96 78 118 124 98 93 93 82 72 66 54 43 34 36 37 17 12 19
121 85 66 62 61 65 88 103 96 94 82 90 194 203 140 162 141 113 108 89 73 82 112 139 98 79 72 75 99 82 92 87 73 54 38 30 26 13 -2 -7 -2 1 8
53 62 61 92 77 120 121 98 81 86 86 102 168 194 211 160 174 109 84 82 79 95 164 127 107 87 110 112 84 103 96 85 79 60 29 25 75 65 12 -13 -25 -22 -15
52 85 124 139 148 132 112 74 64 87 124 224 263 265 234 205 109 84 78 80 96 90 129 123 125 117 125 84 110 120 71 62 68 -10 -28 -24 -0 -31 -26 -22 -23 -19 -11
114 136 153 151 139 128 104 107 113 145 144 153 132 120 98 96 41 98 71 103 73 119 121 123 134 133 106 106 104 84 47 25 -33 -27 -31 12 -19 -9 -9 -31 -12 23 24
134 137 144 141 116 80 74 125 141 157 134 154 132 115 105 59 90 78 81 89 105 105 106 118 149 123 106 95 95 68 -21 -15 -19 -19 3 -7 -19 9 26 2 10 8 1
128 138 110 82 85 91 99 103 168 157 150 101 104 110 59 71 83 89 80 93 103 132 117 122 138 122 110 93 42 -26 -28 -12 -4 20 -0 -19 -9 7 14 28 21 7 -1
87 80 77 91 102 104 146 167 140 173 98 94 107 63 63 86 98 71 70 126 115 127 126 149 144 114 105 51 -4 -9 8 1 13 6 -17 -5 7 9 17 16 23 9 2

GFSMW_con_3kmhel_024.txt.gz
Helicity
233 284 288 312 244 154 208 279 231 179 139 146 178 195 240 241 239 212 209 266 183 190 205 171 158 163 171 200 220 193 176 162 145 137 127 115 109 124 146 178 255 259 288
178 170 237 307 262 209 182 174 164 185 185 224 174 145 153 134 136 112 157 196 112 205 197 210 182 163 178 170 146 169 192 180 142 147 128 148 108 108 112 135 196 223 265
140 139 193 203 165 167 147 138 151 159 166 204 220 168 125 142 154 200 193 166 268 223 196 173 172 182 175 165 139 136 141 179 149 156 153 143 165 142 137 129 167 145 130
222 201 139 108 106 114 132 130 163 190 171 144 154 146 134 176 193 207 213 205 212 174 230 190 170 162 171 150 120 175 235 264 217 167 253 251 246 138 120 138 176 65 161
210 138 117 113 112 100 95 109 114 104 95 74 89 90 124 124 142 166 155 160 180 194 173 162 158 165 171 155 273 328 306 230 162 110 64 133 166 199 216 117 151 174 157
119 114 68 29 -5 -8 24 93 107 139 135 134 102 69 58 79 128 127 162 193 181 141 117 109 120 113 159 241 243 200 184 114 130 153 152 110 69 99 199 191 97 51 91
145 157 156 163 136 118 72 81 113 101 100 154 165 214 260 236 223 201 202 184 100 88 78 57 77 145 188 244 266 257 194 117 105 93 102 99 90 94 96 113 142 115 95
82 73 73 78 111 138 200 188 164 135 119 164 242 203 215 245 233 202 167 116 126 110 67 180 200 229 265 266 262 177 102 66 55 45 44 45 48 61 55 65 45 73 56
98 41 117 99 137 141 155 155 142 152 198 219 200 168 213 177 189 189 138 130 93 77 153 137 160 228 235 234 135 100 103 93 89 70 78 97 74 83 75 69 74 65 86
152 112 129 165 190 184 216 202 235 251 279 279 262 225 216 217 183 143 86 113 162 168 154 201 226 165 134 176 125 97 84 76 83 74 88 93 93 75 79 63 71 97 80
106 127 150 187 166 146 152 190 211 255 282 274 235 174 162 134 155 190 226 211 166 160 156 155 136 136 167 139 124 94 85 74 81 77 103 146 142 135 109 102 92 128 130
141 192 175 155 183 178 261 239 278 333 288 215 140 158 151 260 270 218 176 138 96 121 123 101 88 79 81 71 67 108 67 51 87 82 81 77 69 71 75 84 92 108 130
151 140 155 171 219 264 210 197 270 233 221 141 165 141 163 227 166 111 77 95 104 111 112 117 133 147 130 125 118 101 109 179 133 87 74 75 78 83 83 83 93 97 105
180 187 263 220 192 182 161 228 181 237 187 181 155 135 166 211 192 110 124 146 144 148 140 129 111 116 108 95 105 148 165 144 85 79 86 78 76 81 86 104 108 88 81
210 323 238 117 136 140 180 159 201 199 183 169 143 168 143 331 272 196 157 158 164 168 150 121 113 108 100 147 148 147 120 90 76 65 70 77 75 67 73 89 92 87 86
231 209 128 108 124 144 159 138 122 150 200 201 213 183 255 304 237 170 164 150 161 176 147 127 108 100 100 168 150 125 94 77 79 54 57 77 70 79 104 76 56 99 113
160 132 93 113 185 149 115 97 130 130 191 100 176 126 243 276 232 200 187 172 201 174 163 117 102 115 144 172 160 123 72 67 77 93 99 85 81 83 88 99 97 66 58
142 112 99 136 131 130 91 91 117 119 142 197 147 134 283 199 265 194 221 277 210 162 140 119 170 173 150 159 138 99 90 107 80 101 89 78 55 52 63 62 59 55 52
95 89 97 87 104 107 68 151 189 143 85 88 240 138 143 122 187 167 278 307 172 127 146 142 173 151 132 100 104 137 117 96 94 78 83 72 70 51 56 43 29 26 17
81 66 49 77 91 113 158 220 200 126 68 77 75 69 106 138 238 360 291 152 85 158 164 149 112 99 120 136 121 121 136 124 97 67 58 40 42 80 81 41 22 3 -8
61 55 83 162 186 184 196 222 145 123 107 85 119 139 166 217 214 221 257 110 118 140 141 117 93 100 137 127 103 155 130 112 86 70 43 38 18 14 -47 -63 -66 -54 -48
141 158 198 215 207 171 174 156 196 182 195 147 97 80 105 121 117 109 77 91 111 139 150 102 86 120 132 124 144 163 132 79 75 26 9 -49 -1 -17 -11 -18 -12 -20 -31
184 192 192 188 115 96 117 150 159 275 215 166 144 113 71 56 89 97 71 116 138 144 114 94 106 126 145 128 158 88 46 -16 -19 -1 -4 27 49 -12 -2 35 -12 9 45
133 174 130 96 129 118 118 180 279 224 187 180 119 89 88 104 81 81 86 108 123 114 115 120 134 138 128 117 114 86 19 -8 1 12 49 62 -38 -8 11 2 5 9 -8
171 135 125 166 194 153 178 235 211 164 166 137 105 93 78 69 75 91 80 87 109 120 115 126 140 135 136 108 95 -15 -26 9 16 27 36 -43 -24 -6 8 -6 26 15 2
130 127 149 161 170 181 183 143 138 180 149 126 110 75 34 53 60 53 58 94 96 93 100 121 131 119 105 76 72 -31 -0 12 8 5 -35 -34 -19 10 19 -15 2 25 15